KOREASAT 6A

Last updated on Thu Jul 03 2025 00:02:49 GMT+0000 (Coordinated Universal Time)

1 61910U 24206A 25183.62626866 -.00000354 00000+0 00000+0 0 9993 2 61910 0.0230 106.9235 0001038 351.4207 164.0109 1.00270848 2333
UTC large
Height (km)
Speed (km/s)
/
Latitude / Longitude
Inclination (degrees)
Orbital Period (minutes)
Azimuth
Elevation
Range (km)
Doppler Factor

Next 0 passes for location: London (51.5072 / 0.1276)

Sorry there are no passes over London.